Change the Weather History Date:

Tuesday, April 8, 2014

  Actual Average Record
Temperature  
Mean Temperature 62 °F 64 °F  
Max Temperature 79 °F 78 °F 98 °F (1963)
Min Temperature 44 °F 50 °F 28 °F (1938)
Degree Days  
Heating Degree Days 3 4  
Month to date heating degree days 34 36  
Since 1 July heating degree days 2436 2254  
Cooling Degree Days 0 3  
Month to date cooling degree days 37 19  
Year to date cooling degree days 95 57  
Growing Degree Days 12 (Base 50)    
Moisture  
Dew Point 31 °F    
Average Humidity 42    
Maximum Humidity 70    
Minimum Humidity 13    
Precipitation  
Precipitation 0.00 in 0.04 in 1.69 in (1959)
Month to date precipitation 0.22 0.34  
Year to date precipitation 0.33 4.12  
Snow  
Snow 0.00 in 0.00 in 0.00 in (2002)
Month to date snowfall 0.0 0.0  
Since 1 July snowfall 1.6 2.2  
Snow Depth 0.00 in    
Sea Level Pressure  
Sea Level Pressure 30.18 in    
Wind  
Wind Speed 9 mph (WNW)    
Max Wind Speed 22 mph    
Max Gust Speed 28 mph    
Visibility 10 miles    
Events      
T = Trace of Precipitation, MM = Missing Value Source: NWS Daily Summary

Daily Weather History Graph

Daily Weather History Graph

Search for Another Location

Airport or City:

Trip Planner

Search our weather history database for the weather conditions in past years. The results will help you decide how hot, cold, wet, or windy it might be!

Date:

Astronomy

Apr. 08, 2014 Rise Set
Actual Time 7:22 AM CDT 8:05 PM CDT
Civil Twilight 6:57 AM CDT 8:30 PM CDT
Nautical Twilight 6:28 AM CDT 8:59 PM CDT
Astronomical Twilight 5:58 AM CDT 9:29 PM CDT
Moon 2:22 PM CDT (4/8) 3:13 AM CDT (4/8)
Length of Visible Light 13h 33m
Length of Day
12h 43m
Waxing Gibbous, 63% of the Moon is Illuminated
Apr 8
Waxing Gibbous
Apr 15
Full
Apr 22
Last Quarter
Apr 29
New
May 6
First Quarter

Hourly Weather History & Observations

Time (CDT) Temp. Windchill Dew Point Humidity Pressure Visibility Wind Dir Wind Speed Gust Speed Precip Events Conditions
12:51 AM 53.1 °F - 37.0 °F 55% 30.12 in 10.0 mi NW 9.2 mph - N/A   Clear
1:51 AM 50.0 °F - 39.0 °F 66% 30.13 in 10.0 mi West 5.8 mph - N/A   Clear
2:51 AM 48.9 °F - 37.9 °F 66% 30.14 in 10.0 mi West 6.9 mph - N/A   Clear
3:51 AM 55.0 °F - 34.0 °F 45% 30.16 in 10.0 mi NW 13.8 mph - N/A   Clear
4:51 AM 50.0 °F - 34.0 °F 54% 30.17 in 10.0 mi West 6.9 mph - N/A   Clear
5:51 AM 45.0 °F 41.2 °F 35.1 °F 68% 30.20 in 10.0 mi West 6.9 mph - N/A   Clear
6:51 AM 45.0 °F 39.7 °F 34.0 °F 65% 30.21 in 10.0 mi West 10.4 mph - N/A   Clear
7:51 AM 45.0 °F 39.3 °F 34.0 °F 65% 30.25 in 10.0 mi West 11.5 mph - N/A   Clear
8:51 AM 50.0 °F - 35.1 °F 57% 30.25 in 10.0 mi WNW 6.9 mph - N/A   Clear
9:51 AM 55.9 °F - 36.0 °F 47% 30.25 in 10.0 mi WNW 5.8 mph - N/A   Clear
10:51 AM 64.0 °F - 28.9 °F 27% 30.26 in 10.0 mi NNW 12.7 mph - N/A   Clear
11:51 AM 66.9 °F - 28.0 °F 23% 30.26 in 10.0 mi NNW 12.7 mph - N/A   Clear
12:51 PM 69.1 °F - 27.0 °F 21% 30.24 in 10.0 mi WNW 3.5 mph - N/A   Clear
1:51 PM 72.0 °F - 26.1 °F 18% 30.22 in 10.0 mi WNW 11.5 mph 21.9 mph N/A   Clear
2:51 PM 75.9 °F - 27.0 °F 16% 30.18 in 10.0 mi NW 19.6 mph 27.6 mph N/A   Clear
3:51 PM 77.0 °F - 26.1 °F 15% 30.14 in 10.0 mi NW 15.0 mph 19.6 mph N/A   Clear
4:21 PM 78.1 °F - 25.0 °F 14% 30.16 in 10.0 mi NW 16.1 mph 21.9 mph N/A   Clear
4:51 PM 77.0 °F - 25.0 °F 15% 30.12 in 10.0 mi West 12.7 mph 23.0 mph N/A   Clear
5:51 PM 78.1 °F - 24.1 °F 14% 30.11 in 10.0 mi West 10.4 mph - N/A   Clear
6:51 PM 77.0 °F - 24.1 °F 14% 30.11 in 10.0 mi WNW 9.2 mph - N/A   Clear
7:51 PM 73.0 °F - 27.0 °F 18% 30.12 in 10.0 mi West 9.2 mph - N/A   Clear
8:51 PM 64.9 °F - 30.0 °F 27% 30.14 in 10.0 mi WSW 6.9 mph - N/A   Clear
9:51 PM 60.1 °F - 33.1 °F 36% 30.16 in 10.0 mi SW 8.1 mph - N/A   Clear
10:51 PM 57.0 °F - 34.0 °F 42% 30.17 in 10.0 mi WSW 5.8 mph - N/A   Clear
11:51 PM 54.0 °F - 33.1 °F 45% 30.16 in 10.0 mi SW 5.8 mph - N/A   Clear